Weather History for LIQC - August, 2013

Change the Weather History Date:

Friday, August 2, 2013

  Actual Average Record
Temperature  
Mean Temperature 86 °F -  
Max Temperature 97 °F - - ()
Min Temperature 75 °F - - ()
Cooling Degree Days 21    
Growing Degree Days 36 (Base 50)    
Moisture  
Dew Point 71 °F    
Average Humidity 64    
Maximum Humidity 100    
Minimum Humidity 34    
Precipitation  
Precipitation 0.00 in - - ()
Sea Level Pressure  
Sea Level Pressure 30.03 in    
Wind  
Wind Speed 2 mph ()    
Max Wind Speed 6 mph    
Max Gust Speed -    
Visibility 12.0 miles    
Events      
T = Trace of Precipitation, MM = Missing Value Source: Averaged Metar Reports

Daily Weather History Graph

Daily Weather History Graph

Search for Another Location

Airport or City:

Trip Planner

Search our weather history database for the weather conditions in past years. The results will help you decide how hot, cold, wet, or windy it might be!

Date:

Astronomy

Aug. 02, 2013 Rise Set
Actual Time 6:01 AM CEST 8:17 PM CEST
Civil Twilight 5:30 AM CEST 8:47 PM CEST
Nautical Twilight 4:52 AM CEST 9:25 PM CEST
Astronomical Twilight 4:11 AM CEST 10:06 PM CEST
Moon 2:08 AM CEST (8/2) 5:01 PM CEST (8/2)
Length of Visible Light 15h 16m
Length of Day
14h 15m
Waning Crescent, 17% of the Moon is Illuminated
Aug 2
Waning Crescent
Aug 6
New
Aug 14
First Quarter
Aug 21
Full
Aug 28
Last Quarter

Hourly Weather History & Observations

Time (CEST) Temp. Heat Index Dew Point Humidity Pressure Visibility Wind Dir Wind Speed Gust Speed Precip Events Conditions
12:55 AM 77.0 °F - 68.0 °F 74% 29.98 in - North - - N/A   Clear
1:55 AM 77.0 °F - 68.0 °F 74% 30.01 in - North - - N/A   Clear
2:00 AM 77 °F - 68 °F 67% 29.99 in 12 mi 2.3 mph - -  
5:00 AM 76 °F - 63 °F 56% 29.99 in 12 mi 5.8 mph - -  
6:55 AM 75.2 °F - 68.0 °F 78% 30.01 in - North - - N/A   Clear
7:55 AM 77.0 °F - 66.2 °F 69% 30.04 in - North - - N/A   Clear
8:00 AM 77 °F - 67 °F 64% 30.01 in 12 mi 1.2 mph - -  
8:55 AM 77.0 °F - 69.8 °F 78% 30.04 in - North - - N/A   Clear
10:55 AM 82.4 °F 85.4 °F 68.0 °F 62% 30.04 in - North - - N/A   Clear
11:00 AM 82 °F - 68 °F 53% 30.04 in 12 mi 1.2 mph - -  
11:55 AM 82.4 °F 86.3 °F 69.8 °F 66% 30.06 in - North - - N/A   Clear
12:55 PM 87.8 °F 89.4 °F 64.4 °F 46% 30.06 in - North - - N/A   Clear
1:55 PM 89.6 °F 91.1 °F 64.4 °F 43% 30.06 in - North - - N/A   Clear
2:00 PM 89 °F - 64 °F 34% 30.04 in 12 mi 3.5 mph - -  
2:55 PM 93.2 °F 100.5 °F 71.6 °F 49% 30.04 in - North - - N/A   Clear
3:55 PM 96.8 °F 109.6 °F 75.2 °F 50% 30.04 in - North - - N/A   Clear
4:55 PM 96.8 °F 112.2 °F 77.0 °F 53% 30.04 in - North - - N/A   Clear
5:00 PM 97 °F - 76 °F 42% 30.02 in 12 mi 3.5 mph - -  
5:55 PM 96.8 °F 112.2 °F 77.0 °F 53% 30.04 in - North - - N/A   Clear
6:55 PM 91.4 °F 107.2 °F 78.8 °F 66% 30.04 in - North - - N/A   Clear
7:55 PM 87.8 °F 99.7 °F 77.0 °F 70% 30.04 in - North - - N/A   Clear
8:00 PM 89 °F - 78 °F 62% 30.03 in 12 mi 2.3 mph - -  
8:55 PM 78.8 °F - 78.8 °F 100% 30.04 in - North - - N/A   Clear
9:55 PM 77.0 °F - 71.6 °F 83% 30.04 in - North - - N/A   Clear
10:55 PM 77.0 °F - 73.4 °F 89% 30.06 in - North - - N/A   Clear
11:00 PM 77 °F - 72 °F 82% 30.04 in 12 mi 2.3 mph - -  
11:55 PM 77.0 °F - 68.0 °F 74% 30.06 in - North - - N/A   Clear